Regional Weather Roundup
Issued by NWS Green Bay, WI

Home | Current Version | Previous Version | Graphics & Text | Print | Product List | Glossary Off
Versions: 1 2 3 4 5 6 7 8 9 10 11 12 13 14 15 16 17 18 19 20 21 22 23 24 25 26 27 28 29 30 31 32 33 34 35 36 37 38 39 40 41 42 43 44 45 46 47 48 49 50

000
ASUS43 KGRB 160259
RWRGRB

NORTH-CENTRAL AND NORTHEAST WISCONSIN REGIONAL WEATHER ROUNDUP
NATIONAL WEATHER SERVICE GREEN BAY WI
1000 PM CDT TUE APR 15 2014

WIZ005-009-010>012-018-019-160400-
NORTH CENTRAL WISCONSIN

CITY           SKY/WX    TMP DP  RH WIND       PRES   REMARKS
IRONWOOD       CLEAR     19   9  63 CALM      30.07S
MANITOWISH WTR NOT AVBL
ARBOR VITAE    NOT AVBL
EAGLE RIVER    NOT AVBL
LAND O LAKES   NOT AVBL
RHINELANDER    CLEAR     17   2  51 CALM      30.09R
PHILLIPS       NOT AVBL
ANTIGO         NOT AVBL
TOMAHAWK       NOT AVBL
MERRILL        NOT AVBL
$$

WIZ013-073-160400-
NORTHEAST WISCONSIN

CITY           SKY/WX    TMP DP  RH WIND       PRES   REMARKS
IRON MOUNTAIN  CLEAR     15   8  73 E5        30.12R WCI   8
MARINETTE      PTCLDY    27  19  74 CALM      30.16R
$$

WIZ017-030-035>037-045-160400-
CENTRAL WISCONSIN

CITY           SKY/WX    TMP DP  RH WIND       PRES   REMARKS
MEDFORD        NOT AVBL
WAUSAU         CLEAR     25  13  60 S3        30.10S
MOSINEE        CLEAR     23  12  63 SE5       30.13R
MARSHFIELD     MOCLDY    27  16  63 SE3       30.11R
WISC RAPIDS    CLEAR     24  16  71 S5        30.15R
STEVENS POINT  NOT AVBL
WAUPACA        NOT AVBL
SHAWANO        NOT AVBL
CLINTONVILLE   NOT AVBL
$$

WIZ038-039-048-051-160400-
FOX VALLEY

CITY           SKY/WX    TMP DP  RH WIND       PRES   REMARKS
NWS GREEN BAY  CLEAR     29  19  66 SW3       30.18R
APPLETON       PTCLDY    27  16  63 CALM      30.17R
OSHKOSH        CLEAR     26  19  74 CALM      30.17R
FOND DU LAC    CLEAR     27  21  78 CALM      30.18R
$$

WIZ022-050-052-160400-
EAST CENTRAL WISCONSIN

CITY           SKY/WX    TMP DP  RH WIND       PRES   REMARKS
STURGEON BAY   CLEAR     27  16  63 SW6       30.17R
MANITOWOC      NOT AVBL
SHEBOYGAN      CLEAR     25  20  81 CALM      30.19R
$$

LMZ563-521-522-541>543-160400-
LAKESHORE

STATION/POSITION TIME  TEMP    WIND        PRES    VSBY  WAVE
                       AIR SEA DIR/SP/G                  HT/PER
                 (UTC) (F)     (DEG/KT/KT) (MB)    (MI)  (FT/S)
SHEBOYGAN LKSHOR 0200   33     230/  2/  3 1023.3R
KEWAUNEE LKSHORE 0200   29     250/  3/  4 1022.4R
NORTHPORT PIER   0200   26     350/  5/  6 1021.7R
SISTER BAY LKSHO 0200   23        CALM       N/A
MENOMINEE LKSHOR 0200   28     110/  3/  4 1021.9R
$$



USA.gov is the U.S. government's official web portal to all federal, state and local government web resources and services.